Back to catalog

SL-8 R/B

AlivePO
NORAD 10600·ROCKET BODY·🇷🇺 Russia

Launched Jan 17, 1978 from Plesetsk Cosmodrome

Loading…

Next Passes (next 24 hours)

TLE

FreshSource: Space-Track

Epoch: Sep 14, 2026, 08:22 UTC

1 10600U 78007B   26257.34914397  .00000141  00000-0  12277-3 0  9999
2 10600  82.9368 282.4222 0047713 186.9369 173.1135 13.78853145446887

Track SL-8 R/B in real time with AllMySat

Download on the App Store